Weather in Rassvet

Russia / Tula Oblast     54°09′57″N   37°26′48″E
temp.,
°C
wind,
m/s
gust,
m/s
humid.,
%
clouds,
%
prec.,
mm/h
press.,
hPa
HPBL,
m
21 june, mon
mon2100:00+19se2284100 0.0 102115
03:00+18ese1287100 0.0 102112
06:00+19se238497 0.0 102197
09:00+23se3467100 0.0 1021454
12:00+26se4457100 0.0 1021980
15:00+26se3458100 0.0 1020922
18:00+27se356413 0.0 1020537
21:00+22ese33835 0.0 102051
22 june, tue
tue2200:00+20se22895 0.0 102120
03:00+19se229019 0.0 102115
06:00+20se22855 0.0 102186
09:00+25sse35665 0.0 1021449
12:00+28sse45520 0.0 10211117
15:00+30sse34462 0.0 10211455
18:00+28sse35585 0.0 1020475
21:00+23se22753 0.0 102124
23 june, wed
wed2300:00+20se22842 0.0 102120
03:00+19se228515 0.0 102116
06:00+21e22815 0.0 102269
09:00+26e34625 0.0 1021463
12:00+29ese34501 0.0 10211367
15:00+30ese33461 0.0 10201657
18:00+29ese34590 0.0 1020492
21:00+23ese22745 0.0 102016
24 june, thu
thu2400:00+21ese22831 0.0 102013
03:00+20se12850 0.0 102112
06:00+22se12810 0.0 102077
09:00+27se22621 0.0 1020460
12:00+30s23532 0.0 10191278
15:00+31ssw32510 0.0 10191723
18:00+29w33650 0.2 1018613
21:00+25sse11740 0.2 101711
25 june, fri
fri2500:00+23ssw11811 0.1 101811
03:00+21s1189100 2.0 101711
06:00+22nnw1188100 0.8 101743
09:00+27w11725 0.8 1017361
12:00+30wsw225423 0.0 10171251
15:00+31w225228 0.0 10161666
18:00+30ssw33620 0.0 1014643
21:00+24ese1379100 1.3 101447